Time,TemperatureF,DewpointF,PressureIn,WindDirection,WindDirectionDegrees,WindSpeedMPH,WindSpeedGustMPH,Humidity,HourlyPrecipIn,Conditions,Clouds,dailyrainin,SoftwareType,DateUTC
2013-07-23 00:01:00,64.3,63.1,29.86,SSE,167,0.0,0.0,96,0.00,,,0.00,Wunderground v.1.15,2013-07-23 04:01:00,
2013-07-23 00:02:00,64.2,63.0,29.86,SSE,167,0.0,0.0,96,0.00,,,0.00,Wunderground v.1.15,2013-07-23 04:02:00,
2013-07-23 00:05:00,64.2,63.0,29.86,SSE,167,0.0,0.0,96,0.00,,,0.00,Wunderground v.1.15,2013-07-23 04:05:00,
2013-07-23 00:07:00,64.2,63.0,29.86,SSE,167,0.0,0.0,96,0.00,,,0.00,Wunderground v.1.15,2013-07-23 04:07:00,
2013-07-23 00:08:00,64.2,63.0,29.86,SSE,167,0.0,0.0,96,0.00,,,0.00,Wunderground v.1.15,2013-07-23 04:08:00,
2013-07-23 00:14:00,64.2,63.0,29.86,SSE,167,0.0,0.0,96,0.00,,,0.00,Wunderground v.1.15,2013-07-23 04:14:00,
2013-07-23 00:20:00,64.1,62.9,29.86,SSE,167,0.0,0.0,96,0.00,,,0.00,Wunderground v.1.15,2013-07-23 04:20:00,
2013-07-23 00:25:00,63.9,62.7,29.86,SSE,167,0.0,0.0,96,0.00,,,0.00,Wunderground v.1.15,2013-07-23 04:25:00,
2013-07-23 00:31:00,63.8,62.6,29.85,SSE,167,0.0,0.0,96,0.00,,,0.00,Wunderground v.1.15,2013-07-23 04:31:00,
2013-07-23 00:37:00,63.7,62.5,29.85,SSE,167,0.0,0.0,96,0.00,,,0.00,Wunderground v.1.15,2013-07-23 04:37:00,
2013-07-23 00:43:00,63.6,62.4,29.85,SSE,167,0.0,0.0,96,0.00,,,0.00,Wunderground v.1.15,2013-07-23 04:43:00,
2013-07-23 00:49:00,63.4,62.2,29.85,SSE,167,0.0,0.0,96,0.00,,,0.00,Wunderground v.1.15,2013-07-23 04:49:00,
2013-07-23 00:54:00,63.3,62.1,29.85,SSE,167,0.0,0.0,96,0.00,,,0.00,Wunderground v.1.15,2013-07-23 04:54:00,
2013-07-23 01:00:00,63.2,62.0,29.85,SSE,167,0.0,0.0,96,0.00,,,0.00,Wunderground v.1.15,2013-07-23 05:00:00,
2013-07-23 01:06:00,63.0,61.8,29.85,SSE,167,0.0,0.0,96,0.00,,,0.00,Wunderground v.1.15,2013-07-23 05:06:00,
2013-07-23 01:12:00,63.0,61.8,29.85,SSE,167,0.0,0.0,96,0.00,,,0.00,Wunderground v.1.15,2013-07-23 05:12:00,
2013-07-23 01:17:00,63.0,62.1,29.85,SSE,167,0.0,0.0,97,0.00,,,0.00,Wunderground v.1.15,2013-07-23 05:17:00,
2013-07-23 01:23:00,62.9,62.0,29.85,SSE,167,0.0,0.0,97,0.00,,,0.00,Wunderground v.1.15,2013-07-23 05:23:00,
2013-07-23 01:29:00,62.8,61.9,29.85,SSE,167,0.0,0.0,97,0.00,,,0.00,Wunderground v.1.15,2013-07-23 05:29:00,
2013-07-23 01:35:00,62.7,61.8,29.84,SSE,167,0.0,0.0,97,0.00,,,0.00,Wunderground v.1.15,2013-07-23 05:35:00,
2013-07-23 01:41:00,62.6,61.7,29.84,SSE,167,0.0,0.0,97,0.00,,,0.00,Wunderground v.1.15,2013-07-23 05:41:00,
2013-07-23 01:47:00,62.5,61.6,29.84,SSE,167,0.0,0.0,97,0.00,,,0.00,Wunderground v.1.15,2013-07-23 05:47:00,
2013-07-23 01:52:00,62.4,61.5,29.84,SSE,167,0.0,0.0,97,0.00,,,0.00,Wunderground v.1.15,2013-07-23 05:52:00,
2013-07-23 01:58:00,62.3,61.4,29.84,SSE,167,0.0,0.0,97,0.00,,,0.00,Wunderground v.1.15,2013-07-23 05:58:00,
2013-07-23 02:04:00,62.3,61.4,29.85,SSE,167,0.0,0.0,97,0.00,,,0.00,Wunderground v.1.15,2013-07-23 06:04:00,
2013-07-23 02:10:00,62.2,61.3,29.84,SSE,167,0.0,0.0,97,0.00,,,0.00,Wunderground v.1.15,2013-07-23 06:10:00,
2013-07-23 02:16:00,62.2,61.3,29.84,SSE,167,0.0,0.0,97,0.00,,,0.00,Wunderground v.1.15,2013-07-23 06:16:00,
2013-07-23 02:21:00,62.1,61.2,29.84,SSE,167,0.0,0.0,97,0.00,,,0.00,Wunderground v.1.15,2013-07-23 06:21:00,
2013-07-23 02:27:00,62.2,61.3,29.84,SSE,167,0.0,0.0,97,0.00,,,0.00,Wunderground v.1.15,2013-07-23 06:27:00,
2013-07-23 02:33:00,62.2,61.3,29.84,SSE,167,0.0,0.0,97,0.00,,,0.00,Wunderground v.1.15,2013-07-23 06:33:00,
2013-07-23 02:39:00,62.1,61.2,29.84,SSE,167,0.0,0.0,97,0.00,,,0.00,Wunderground v.1.15,2013-07-23 06:39:00,
2013-07-23 02:44:00,62.0,61.1,29.84,SSE,167,0.0,0.0,97,0.00,,,0.00,Wunderground v.1.15,2013-07-23 06:44:00,
2013-07-23 02:50:00,61.8,60.9,29.84,SSE,167,0.0,0.0,97,0.00,,,0.00,Wunderground v.1.15,2013-07-23 06:50:00,
2013-07-23 02:56:00,61.8,60.9,29.84,SSE,167,0.0,0.0,97,0.00,,,0.00,Wunderground v.1.15,2013-07-23 06:56:00,
2013-07-23 03:02:00,61.8,60.9,29.84,SSE,167,0.0,0.0,97,0.00,,,0.00,Wunderground v.1.15,2013-07-23 07:02:00,
2013-07-23 03:07:00,61.8,60.9,29.84,SSE,167,0.0,0.0,97,0.00,,,0.00,Wunderground v.1.15,2013-07-23 07:07:00,
2013-07-23 03:13:00,61.8,60.9,29.84,SSE,167,0.0,0.0,97,0.00,,,0.00,Wunderground v.1.15,2013-07-23 07:13:00,
2013-07-23 03:19:00,62.0,61.4,29.83,SSE,167,0.0,0.0,98,0.00,,,0.00,Wunderground v.1.15,2013-07-23 07:19:00,
2013-07-23 03:24:00,62.1,61.5,29.83,SSE,167,0.0,0.0,98,0.00,,,0.00,Wunderground v.1.15,2013-07-23 07:24:00,
2013-07-23 03:30:00,62.2,61.6,29.83,SSE,167,0.0,0.0,98,0.00,,,0.00,Wunderground v.1.15,2013-07-23 07:30:00,
2013-07-23 03:36:00,62.1,61.5,29.83,SSE,167,0.0,0.0,98,0.00,,,0.00,Wunderground v.1.15,2013-07-23 07:36:00,
2013-07-23 03:42:00,62.1,61.5,29.83,SSE,167,0.0,0.0,98,0.00,,,0.00,Wunderground v.1.15,2013-07-23 07:42:00,
2013-07-23 03:48:00,62.3,61.7,29.83,SSE,167,0.0,0.0,98,0.00,,,0.00,Wunderground v.1.15,2013-07-23 07:48:00,
2013-07-23 03:54:00,62.3,61.7,29.83,SSE,167,0.0,0.0,98,0.00,,,0.00,Wunderground v.1.15,2013-07-23 07:54:00,
2013-07-23 03:59:00,62.1,61.5,29.83,SSE,167,0.0,0.0,98,0.00,,,0.00,Wunderground v.1.15,2013-07-23 07:59:00,
2013-07-23 04:05:00,62.0,61.1,29.82,SSE,167,0.0,0.0,97,0.00,,,0.00,Wunderground v.1.15,2013-07-23 08:05:00,
2013-07-23 04:11:00,62.1,61.5,29.82,SSE,167,0.0,0.0,98,0.00,,,0.00,Wunderground v.1.15,2013-07-23 08:11:00,
2013-07-23 04:16:00,62.1,61.5,29.82,SSE,167,0.0,0.0,98,0.00,,,0.00,Wunderground v.1.15,2013-07-23 08:16:00,
2013-07-23 04:22:00,62.1,61.5,29.82,SSE,167,0.0,0.0,98,0.00,,,0.00,Wunderground v.1.15,2013-07-23 08:22:00,
2013-07-23 04:28:00,62.0,61.4,29.82,SSE,167,0.0,0.0,98,0.00,,,0.00,Wunderground v.1.15,2013-07-23 08:28:00,
2013-07-23 04:34:00,62.0,61.4,29.82,SSE,167,0.0,0.0,98,0.00,,,0.00,Wunderground v.1.15,2013-07-23 08:34:00,
2013-07-23 04:39:00,61.9,61.3,29.82,SSE,167,0.0,0.0,98,0.00,,,0.00,Wunderground v.1.15,2013-07-23 08:39:00,
2013-07-23 04:45:00,61.8,61.2,29.82,SSE,167,0.0,0.0,98,0.00,,,0.00,Wunderground v.1.15,2013-07-23 08:45:00,
2013-07-23 04:51:00,61.7,61.1,29.82,SSE,167,0.0,0.0,98,0.00,,,0.00,Wunderground v.1.15,2013-07-23 08:51:00,
2013-07-23 04:57:00,61.7,61.1,29.82,SSE,167,0.0,0.0,98,0.00,,,0.00,Wunderground v.1.15,2013-07-23 08:57:00,
2013-07-23 05:03:00,61.8,61.2,29.82,SSE,167,0.0,0.0,98,0.00,,,0.00,Wunderground v.1.15,2013-07-23 09:03:00,
2013-07-23 05:08:00,61.8,61.2,29.82,SSE,167,0.0,0.0,98,0.00,,,0.00,Wunderground v.1.15,2013-07-23 09:08:00,
2013-07-23 05:14:00,61.8,61.2,29.81,SSE,167,0.0,0.0,98,0.00,,,0.00,Wunderground v.1.15,2013-07-23 09:14:00,
2013-07-23 05:20:00,61.7,61.1,29.82,SSE,167,0.0,0.0,98,0.00,,,0.00,Wunderground v.1.15,2013-07-23 09:20:00,
2013-07-23 05:26:00,61.6,61.0,29.81,SSE,167,0.0,0.0,98,0.00,,,0.00,Wunderground v.1.15,2013-07-23 09:26:00,
2013-07-23 05:32:00,61.6,61.0,29.82,SSE,167,0.0,0.0,98,0.00,,,0.00,Wunderground v.1.15,2013-07-23 09:32:00,
2013-07-23 05:38:00,61.5,60.9,29.82,SSE,167,0.0,0.0,98,0.00,,,0.00,Wunderground v.1.15,2013-07-23 09:38:00,
2013-07-23 05:43:00,61.4,60.8,29.82,SSE,167,0.0,0.0,98,0.00,,,0.00,Wunderground v.1.15,2013-07-23 09:43:00,
2013-07-23 05:49:00,61.5,60.9,29.82,SSE,167,0.0,0.0,98,0.00,,,0.00,Wunderground v.1.15,2013-07-23 09:49:00,
2013-07-23 05:55:00,61.4,60.8,29.82,SSE,167,0.0,0.0,98,0.00,,,0.00,Wunderground v.1.15,2013-07-23 09:55:00,
2013-07-23 06:00:00,61.3,60.7,29.81,SSE,167,0.0,0.0,98,0.00,,,0.00,Wunderground v.1.15,2013-07-23 10:00:00,
2013-07-23 06:05:00,61.3,60.7,29.82,SSE,167,0.0,0.0,98,0.00,,,0.00,Wunderground v.1.15,2013-07-23 10:05:00,
2013-07-23 06:11:00,61.2,60.6,29.82,SSE,167,0.0,0.0,98,0.00,,,0.00,Wunderground v.1.15,2013-07-23 10:11:00,
2013-07-23 06:16:00,61.2,60.6,29.82,SSE,167,0.0,0.0,98,0.00,,,0.00,Wunderground v.1.15,2013-07-23 10:16:00,
2013-07-23 06:21:00,61.1,60.5,29.83,SSE,167,0.0,0.0,98,0.00,,,0.00,Wunderground v.1.15,2013-07-23 10:21:00,
2013-07-23 06:27:00,61.3,60.7,29.83,SSE,167,0.0,0.0,98,0.00,,,0.00,Wunderground v.1.15,2013-07-23 10:27:00,
2013-07-23 06:33:00,61.4,60.8,29.83,SSE,167,0.0,0.0,98,0.00,,,0.00,Wunderground v.1.15,2013-07-23 10:33:00,
2013-07-23 06:39:00,61.5,60.9,29.83,SSE,167,0.0,0.0,98,0.00,,,0.00,Wunderground v.1.15,2013-07-23 10:39:00,
2013-07-23 06:45:00,61.5,60.9,29.83,SSE,167,0.0,0.0,98,0.00,,,0.00,Wunderground v.1.15,2013-07-23 10:45:00,
2013-07-23 06:51:00,61.6,61.0,29.83,SSE,167,0.0,0.0,98,0.00,,,0.00,Wunderground v.1.15,2013-07-23 10:51:00,
2013-07-23 06:56:00,61.7,61.1,29.83,SSE,167,0.0,0.0,98,0.00,,,0.00,Wunderground v.1.15,2013-07-23 10:56:00,
2013-07-23 07:02:00,61.9,61.3,29.83,SSE,167,0.0,0.0,98,0.00,,,0.00,Wunderground v.1.15,2013-07-23 11:02:00,
2013-07-23 07:08:00,62.2,61.6,29.83,SSE,167,0.0,0.0,98,0.00,,,0.00,Wunderground v.1.15,2013-07-23 11:08:00,
2013-07-23 07:15:00,62.6,62.3,29.83,SSE,167,0.0,0.0,99,0.00,,,0.00,Wunderground v.1.15,2013-07-23 11:15:00,
2013-07-23 07:20:00,62.9,62.6,29.83,SSE,167,0.0,0.0,99,0.00,,,0.00,Wunderground v.1.15,2013-07-23 11:20:00,
2013-07-23 07:25:00,63.2,62.9,29.84,SSE,167,0.0,0.0,99,0.00,,,0.00,Wunderground v.1.15,2013-07-23 11:25:00,
2013-07-23 07:30:00,63.5,63.2,29.84,SSE,167,0.0,0.0,99,0.00,,,0.00,Wunderground v.1.15,2013-07-23 11:30:00,
2013-07-23 07:36:00,63.9,63.6,29.85,SSE,167,0.0,0.0,99,0.00,,,0.00,Wunderground v.1.15,2013-07-23 11:36:00,
2013-07-23 07:42:00,64.3,64.0,29.84,SSE,167,0.0,1.0,99,0.00,,,0.00,Wunderground v.1.15,2013-07-23 11:42:00,
2013-07-23 07:47:00,64.7,64.4,29.85,SSE,167,0.0,2.0,99,0.00,,,0.00,Wunderground v.1.15,2013-07-23 11:47:00,
2013-07-23 07:53:00,65.0,64.7,29.85,SW,220,1.0,2.0,99,0.00,,,0.00,Wunderground v.1.15,2013-07-23 11:53:00,
2013-07-23 07:58:00,65.2,64.9,29.85,SW,215,1.0,3.0,99,0.00,,,0.00,Wunderground v.1.15,2013-07-23 11:58:00,
2013-07-23 08:04:00,65.4,65.1,29.85,SW,219,1.0,3.0,99,0.00,,,0.00,Wunderground v.1.15,2013-07-23 12:04:00,
2013-07-23 08:10:00,65.6,65.3,29.84,SW,219,1.0,1.0,99,0.00,,,0.00,Wunderground v.1.15,2013-07-23 12:10:00,
2013-07-23 08:16:00,65.8,65.5,29.84,SW,214,1.0,4.0,99,0.00,,,0.00,Wunderground v.1.15,2013-07-23 12:16:00,
2013-07-23 08:22:00,66.0,65.7,29.84,SW,214,2.0,3.0,99,0.00,,,0.00,Wunderground v.1.15,2013-07-23 12:22:00,
2013-07-23 08:27:00,66.2,65.9,29.83,SSW,213,1.0,3.0,99,0.00,,,0.00,Wunderground v.1.15,2013-07-23 12:27:00,
2013-07-23 08:33:00,66.5,66.2,29.83,SSW,213,1.0,3.0,99,0.00,,,0.00,Wunderground v.1.15,2013-07-23 12:33:00,
2013-07-23 08:39:00,66.8,66.5,29.83,SSW,213,1.0,1.0,99,0.00,,,0.00,Wunderground v.1.15,2013-07-23 12:39:00,
2013-07-23 08:45:00,67.1,66.5,29.83,SSW,208,1.0,3.0,98,0.00,,,0.00,Wunderground v.1.15,2013-07-23 12:45:00,
2013-07-23 08:51:00,67.4,66.8,29.83,South,188,2.0,2.0,98,0.00,,,0.00,Wunderground v.1.15,2013-07-23 12:51:00,
2013-07-23 08:57:00,67.8,66.9,29.83,South,188,1.0,2.0,97,0.00,,,0.00,Wunderground v.1.15,2013-07-23 12:57:00,
2013-07-23 09:02:00,68.1,67.2,29.83,South,188,1.0,3.0,97,0.00,,,0.00,Wunderground v.1.15,2013-07-23 13:02:00,
2013-07-23 09:07:00,68.4,67.2,29.82,SSW,199,2.0,4.0,96,0.00,,,0.00,Wunderground v.1.15,2013-07-23 13:07:00,
2013-07-23 09:12:00,68.8,67.3,29.82,SSW,193,2.0,5.0,95,0.00,,,0.00,Wunderground v.1.15,2013-07-23 13:12:00,
2013-07-23 09:17:00,69.1,66.7,29.82,SSW,192,2.0,5.0,92,0.00,,,0.00,Wunderground v.1.15,2013-07-23 13:17:00,
2013-07-23 09:22:00,69.7,67.3,29.82,SSW,202,2.0,4.0,92,0.00,,,0.00,Wunderground v.1.15,2013-07-23 13:22:00,
2013-07-23 09:29:00,70.2,67.1,29.82,SSW,196,3.0,6.0,90,0.00,,,0.00,Wunderground v.1.15,2013-07-23 13:29:00,
2013-07-23 09:35:00,70.6,67.2,29.82,South,189,3.0,6.0,89,0.00,,,0.00,Wunderground v.1.15,2013-07-23 13:35:00,
2013-07-23 09:41:00,70.9,67.2,29.82,SSW,212,2.0,4.0,88,0.00,,,0.00,Wunderground v.1.15,2013-07-23 13:41:00,
2013-07-23 09:47:00,71.4,67.7,29.82,SSW,208,2.0,4.0,88,0.00,,,0.00,Wunderground v.1.15,2013-07-23 13:47:00,
2013-07-23 09:53:00,71.8,68.1,29.81,SW,232,2.0,2.0,88,0.00,,,0.00,Wunderground v.1.15,2013-07-23 13:53:00,
2013-07-23 09:58:00,72.1,68.3,29.81,SSW,194,2.0,4.0,88,0.00,,,0.00,Wunderground v.1.15,2013-07-23 13:58:00,
2013-07-23 10:04:00,72.6,68.5,29.81,West,263,2.0,5.0,87,0.00,,,0.00,Wunderground v.1.15,2013-07-23 14:04:00,
2013-07-23 10:10:00,73.0,68.6,29.81,SW,234,3.0,6.0,86,0.00,,,0.00,Wunderground v.1.15,2013-07-23 14:10:00,
2013-07-23 10:15:00,73.4,68.3,29.81,SSW,204,4.0,6.0,84,0.00,,,0.00,Wunderground v.1.15,2013-07-23 14:15:00,
2013-07-23 10:21:00,73.8,68.7,29.81,West,279,3.0,5.0,84,0.00,,,0.00,Wunderground v.1.15,2013-07-23 14:21:00,
2013-07-23 10:27:00,74.2,68.3,29.81,South,181,2.0,5.0,82,0.00,,,0.00,Wunderground v.1.15,2013-07-23 14:27:00,
2013-07-23 10:33:00,74.4,68.5,29.81,SW,227,4.0,5.0,82,0.00,,,0.00,Wunderground v.1.15,2013-07-23 14:33:00,
2013-07-23 10:39:00,74.7,67.8,29.81,SW,229,4.0,5.0,79,0.00,,,0.00,Wunderground v.1.15,2013-07-23 14:39:00,
2013-07-23 10:44:00,75.1,68.1,29.81,SW,223,4.0,5.0,79,0.00,,,0.00,Wunderground v.1.15,2013-07-23 14:44:00,
2013-07-23 10:50:00,75.5,68.2,29.81,West,263,4.0,6.0,78,0.00,,,0.00,Wunderground v.1.15,2013-07-23 14:50:00,
2013-07-23 10:56:00,75.8,68.8,29.81,West,265,3.0,6.0,79,0.00,,,0.00,Wunderground v.1.15,2013-07-23 14:56:00,
2013-07-23 11:02:00,76.2,68.5,29.81,West,267,3.0,7.0,77,0.00,,,0.00,Wunderground v.1.15,2013-07-23 15:02:00,
2013-07-23 11:08:00,76.7,68.6,29.82,SW,235,4.0,7.0,76,0.00,,,0.00,Wunderground v.1.15,2013-07-23 15:08:00,
2013-07-23 11:13:00,76.7,68.2,29.82,WSW,256,5.0,5.0,75,0.00,,,0.00,Wunderground v.1.15,2013-07-23 15:13:00,
2013-07-23 11:19:00,77.0,68.9,29.82,SSW,198,4.0,5.0,76,0.00,,,0.00,Wunderground v.1.15,2013-07-23 15:19:00,
2013-07-23 11:24:00,77.3,68.0,29.82,SW,227,5.0,8.0,73,0.00,,,0.00,Wunderground v.1.15,2013-07-23 15:24:00,
2013-07-23 11:30:00,77.5,68.2,29.81,SW,227,5.0,5.0,73,0.00,,,0.00,Wunderground v.1.15,2013-07-23 15:30:00,
2013-07-23 11:36:00,77.8,68.8,29.82,WSW,253,4.0,11.0,74,0.00,,,0.00,Wunderground v.1.15,2013-07-23 15:36:00,
2013-07-23 11:42:00,77.8,69.2,29.82,WSW,246,5.0,6.0,75,0.00,,,0.00,Wunderground v.1.15,2013-07-23 15:42:00,
2013-07-23 11:48:00,77.6,68.3,29.82,West,268,5.0,7.0,73,0.00,,,0.00,Wunderground v.1.15,2013-07-23 15:48:00,
2013-07-23 11:53:00,77.3,68.8,29.82,South,190,5.0,7.0,75,0.00,,,0.00,Wunderground v.1.15,2013-07-23 15:53:00,
2013-07-23 11:59:00,77.5,68.6,29.82,South,191,5.0,8.0,74,0.00,,,0.00,Wunderground v.1.15,2013-07-23 15:59:00,
2013-07-23 12:04:00,77.6,68.3,29.82,WNW,295,6.0,7.0,73,0.00,,,0.00,Wunderground v.1.15,2013-07-23 16:04:00,
2013-07-23 12:10:00,77.6,67.9,29.82,West,274,6.0,6.0,72,0.00,,,0.00,Wunderground v.1.15,2013-07-23 16:10:00,
2013-07-23 12:15:00,77.5,68.6,29.82,West,265,5.0,6.0,74,0.00,,,0.00,Wunderground v.1.15,2013-07-23 16:15:00,
2013-07-23 12:22:00,77.5,68.6,29.81,SSW,209,3.0,4.0,74,0.00,,,0.00,Wunderground v.1.15,2013-07-23 16:22:00,
2013-07-23 12:28:00,77.6,68.7,29.82,SW,236,3.0,5.0,74,0.00,,,0.00,Wunderground v.1.15,2013-07-23 16:28:00,
2013-07-23 12:34:00,77.8,68.4,29.81,SSW,208,3.0,5.0,73,0.00,,,0.00,Wunderground v.1.15,2013-07-23 16:34:00,
2013-07-23 12:40:00,77.8,68.8,29.81,SSW,209,3.0,3.0,74,0.00,,,0.00,Wunderground v.1.15,2013-07-23 16:40:00,
2013-07-23 12:45:00,77.6,69.0,29.81,WSW,246,2.0,4.0,75,0.00,,,0.00,Wunderground v.1.15,2013-07-23 16:45:00,
2013-07-23 12:51:00,77.4,69.6,29.81,WSW,256,1.0,1.0,77,0.00,,,0.00,Wunderground v.1.15,2013-07-23 16:51:00,
2013-07-23 12:58:00,77.4,69.6,29.81,West,263,0.0,2.0,77,0.00,,,0.00,Wunderground v.1.15,2013-07-23 16:58:00,
2013-07-23 13:03:00,77.4,69.6,29.81,North,5,0.0,11.0,77,0.00,,,0.00,Wunderground v.1.15,2013-07-23 17:03:00,
2013-07-23 13:08:00,77.3,69.5,29.80,ENE,58,0.0,11.0,77,0.00,,,0.00,Wunderground v.1.15,2013-07-23 17:08:00,
2013-07-23 13:14:00,77.2,70.2,29.80,ENE,58,0.0,11.0,79,0.00,,,0.01,Wunderground v.1.15,2013-07-23 17:14:00,
2013-07-23 13:20:00,77.1,70.5,29.80,ENE,58,0.0,11.0,80,0.00,,,0.01,Wunderground v.1.15,2013-07-23 17:20:00,
2013-07-23 13:26:00,76.9,71.0,29.80,ENE,58,0.0,11.0,82,0.00,,,0.01,Wunderground v.1.15,2013-07-23 17:26:00,
2013-07-23 13:32:00,76.6,71.4,29.79,ENE,58,0.0,11.0,84,0.04,,,0.02,Wunderground v.1.15,2013-07-23 17:32:00,
2013-07-23 13:38:00,76.1,71.6,29.81,West,263,0.0,11.0,86,0.22,,,0.08,Wunderground v.1.15,2013-07-23 17:38:00,
2013-07-23 13:43:00,74.7,70.2,29.79,ENE,75,2.0,11.0,86,0.38,,,0.24,Wunderground v.1.15,2013-07-23 17:43:00,
2013-07-23 13:49:00,74.0,70.6,29.80,ENE,75,1.0,11.0,89,0.11,,,0.25,Wunderground v.1.15,2013-07-23 17:49:00,
2013-07-23 13:55:00,73.3,70.2,29.80,ENE,75,0.0,11.0,90,0.05,,,0.25,Wunderground v.1.15,2013-07-23 17:55:00,
2013-07-23 14:01:00,72.9,70.1,29.80,SE,146,0.0,11.0,91,0.05,,,0.26,Wunderground v.1.15,2013-07-23 18:01:00,
2013-07-23 14:08:00,72.7,70.6,29.78,SSE,148,0.0,11.0,93,0.11,,,0.27,Wunderground v.1.15,2013-07-23 18:08:00,
2013-07-23 14:13:00,72.6,70.5,29.78,NE,56,0.0,11.0,93,0.05,,,0.27,Wunderground v.1.15,2013-07-23 18:13:00,
2013-07-23 14:19:00,72.5,70.4,29.78,ENE,78,0.0,11.0,93,0.00,,,0.27,Wunderground v.1.15,2013-07-23 18:19:00,
2013-07-23 14:25:00,72.2,69.7,29.78,ENE,78,0.0,11.0,92,0.00,,,0.27,Wunderground v.1.15,2013-07-23 18:25:00,
2013-07-23 14:30:00,71.9,69.4,29.77,ENE,78,0.0,11.0,92,0.00,,,0.27,Wunderground v.1.15,2013-07-23 18:30:00,
2013-07-23 14:35:00,71.7,69.6,29.77,ENE,78,0.0,11.0,93,0.00,,,0.27,Wunderground v.1.15,2013-07-23 18:35:00,
2013-07-23 14:40:00,71.4,69.3,29.78,SSE,152,0.0,11.0,93,0.00,,,0.27,Wunderground v.1.15,2013-07-23 18:40:00,
2013-07-23 14:46:00,70.6,68.2,29.78,SSW,194,1.0,11.0,92,0.58,,,0.30,Wunderground v.1.15,2013-07-23 18:46:00,
2013-07-23 14:52:00,70.1,68.0,29.79,West,265,1.0,11.0,93,1.59,,,0.40,Wunderground v.1.15,2013-07-23 18:52:00,
2013-07-23 14:57:00,69.7,67.6,29.76,ENE,77,1.0,11.0,93,0.17,,,0.42,Wunderground v.1.15,2013-07-23 18:57:00,
2013-07-23 15:02:00,69.5,67.7,29.78,ENE,77,0.0,1.0,94,0.07,,,0.42,Wunderground v.1.15,2013-07-23 19:02:00,
2013-07-23 15:08:00,69.5,68.0,29.80,SW,231,1.0,4.0,95,0.04,,,0.42,Wunderground v.1.15,2013-07-23 19:08:00,
2013-07-23 15:14:00,69.4,67.9,29.80,SSW,197,2.0,4.0,95,0.00,,,0.42,Wunderground v.1.15,2013-07-23 19:14:00,
2013-07-23 15:19:00,69.2,67.7,29.80,SSW,197,2.0,4.0,95,0.00,,,0.42,Wunderground v.1.15,2013-07-23 19:19:00,
2013-07-23 15:24:00,69.0,67.5,29.78,SSW,197,1.0,1.0,95,0.00,,,0.43,Wunderground v.1.15,2013-07-23 19:24:00,
2013-07-23 15:29:00,68.9,67.4,29.78,SSW,197,0.0,0.0,95,0.00,,,0.43,Wunderground v.1.15,2013-07-23 19:29:00,
2013-07-23 15:35:00,68.9,67.7,29.77,SSW,197,0.0,0.0,96,0.00,,,0.43,Wunderground v.1.15,2013-07-23 19:35:00,
2013-07-23 15:41:00,69.1,67.9,29.77,SSW,197,0.0,0.0,96,0.00,,,0.43,Wunderground v.1.15,2013-07-23 19:41:00,
2013-07-23 15:46:00,69.6,68.7,29.78,SSW,197,0.0,1.0,97,0.00,,,0.44,Wunderground v.1.15,2013-07-23 19:46:00,
2013-07-23 15:52:00,70.4,69.5,29.77,SSW,197,0.0,0.0,97,0.00,,,0.44,Wunderground v.1.15,2013-07-23 19:52:00,
2013-07-23 15:58:00,70.7,69.8,29.76,SSW,197,0.0,0.0,97,0.00,,,0.44,Wunderground v.1.15,2013-07-23 19:58:00,
2013-07-23 16:04:00,71.0,70.1,29.76,SSW,197,0.0,6.0,97,0.00,,,0.44,Wunderground v.1.15,2013-07-23 20:04:00,
2013-07-23 16:09:00,71.5,70.6,29.76,SSW,192,0.0,6.0,97,0.00,,,0.44,Wunderground v.1.15,2013-07-23 20:09:00,
2013-07-23 16:14:00,71.8,70.6,29.76,South,185,1.0,6.0,96,0.00,,,0.44,Wunderground v.1.15,2013-07-23 20:14:00,
2013-07-23 16:22:00,72.8,70.3,29.76,SSW,205,1.0,6.0,92,0.00,,,0.44,Wunderground v.1.15,2013-07-23 20:22:00,
2013-07-23 16:29:00,73.6,70.5,29.76,SSW,196,2.0,6.0,90,0.00,,,0.44,Wunderground v.1.15,2013-07-23 20:29:00,
2013-07-23 16:34:00,74.3,71.2,29.75,SSW,196,1.0,6.0,90,0.00,,,0.44,Wunderground v.1.15,2013-07-23 20:34:00,
2013-07-23 16:48:00,75.6,70.8,29.75,SSW,196,3.0,3.0,85,0.00,,,0.44,Wunderground v.1.15,2013-07-23 20:48:00,
2013-07-23 16:53:00,76.0,71.2,29.75,SSW,196,2.0,3.0,85,0.00,,,0.44,Wunderground v.1.15,2013-07-23 20:53:00,
2013-07-23 16:59:00,76.7,71.5,29.76,SSW,198,1.0,2.0,84,0.00,,,0.44,Wunderground v.1.15,2013-07-23 20:59:00,
2013-07-23 17:05:00,77.3,72.1,29.76,SSW,198,1.0,2.0,84,0.00,,,0.44,Wunderground v.1.15,2013-07-23 21:05:00,
2013-07-23 17:11:00,77.9,73.0,29.76,South,178,1.0,1.0,85,0.00,,,0.44,Wunderground v.1.15,2013-07-23 21:11:00,
2013-07-23 17:17:00,78.4,72.8,29.76,SW,232,2.0,4.0,83,0.00,,,0.44,Wunderground v.1.15,2013-07-23 21:17:00,
2013-07-23 17:23:00,78.9,73.7,29.75,WSW,252,1.0,3.0,84,0.00,,,0.44,Wunderground v.1.15,2013-07-23 21:23:00,
2013-07-23 17:28:00,79.3,73.3,29.75,SW,232,1.0,4.0,82,0.00,,,0.44,Wunderground v.1.15,2013-07-23 21:28:00,
2013-07-23 17:34:00,79.9,74.3,29.75,WSW,257,2.0,6.0,83,0.00,,,0.44,Wunderground v.1.15,2013-07-23 21:34:00,
2013-07-23 17:40:00,80.3,73.6,29.75,West,265,1.0,6.0,80,0.00,,,0.44,Wunderground v.1.15,2013-07-23 21:40:00,
2013-07-23 17:45:00,80.3,73.6,29.75,WSW,254,2.0,6.0,80,0.00,,,0.44,Wunderground v.1.15,2013-07-23 21:45:00,
2013-07-23 17:51:00,80.3,73.2,29.74,North,11,1.0,6.0,79,0.00,,,0.44,Wunderground v.1.15,2013-07-23 21:51:00,
2013-07-23 17:57:00,80.4,72.5,29.74,SW,235,2.0,6.0,77,0.00,,,0.44,Wunderground v.1.15,2013-07-23 21:57:00,
2013-07-23 18:02:00,80.5,72.6,29.72,South,189,2.0,2.0,77,0.00,,,0.44,Wunderground v.1.15,2013-07-23 22:02:00,
2013-07-23 18:09:00,80.3,72.4,29.72,SW,235,3.0,5.0,77,0.00,,,0.44,Wunderground v.1.15,2013-07-23 22:09:00,
2013-07-23 18:15:00,80.1,71.8,29.72,WSW,238,3.0,8.0,76,0.00,,,0.44,Wunderground v.1.15,2013-07-23 22:15:00,
2013-07-23 18:21:00,80.0,71.8,29.72,WSW,246,5.0,6.0,76,0.00,,,0.44,Wunderground v.1.15,2013-07-23 22:21:00,
2013-07-23 18:27:00,80.2,71.9,29.72,West,262,4.0,7.0,76,0.00,,,0.44,Wunderground v.1.15,2013-07-23 22:27:00,
2013-07-23 18:33:00,80.5,72.6,29.73,West,270,2.0,3.0,77,0.00,,,0.44,Wunderground v.1.15,2013-07-23 22:33:00,
2013-07-23 18:39:00,80.5,71.8,29.73,WSW,249,2.0,4.0,75,0.00,,,0.44,Wunderground v.1.15,2013-07-23 22:39:00,
2013-07-23 18:44:00,80.5,72.2,29.73,SSW,196,2.0,3.0,76,0.00,,,0.44,Wunderground v.1.15,2013-07-23 22:44:00,
2013-07-23 18:51:00,80.4,71.3,29.73,WSW,252,2.0,7.0,74,0.00,,,0.44,Wunderground v.1.15,2013-07-23 22:51:00,
2013-07-23 18:57:00,80.1,70.7,29.73,West,265,3.0,7.0,73,0.00,,,0.44,Wunderground v.1.15,2013-07-23 22:57:00,
2013-07-23 19:02:00,79.9,70.5,29.73,SW,233,4.0,10.0,73,0.00,,,0.44,Wunderground v.1.15,2013-07-23 23:02:00,
2013-07-23 19:09:00,79.7,70.7,29.73,West,274,4.0,10.0,74,0.00,,,0.44,Wunderground v.1.15,2013-07-23 23:09:00,
2013-07-23 19:14:00,79.3,70.7,29.73,SW,234,5.0,13.0,75,0.00,,,0.44,Wunderground v.1.15,2013-07-23 23:14:00,
2013-07-23 19:20:00,79.0,71.2,29.73,West,277,6.0,11.0,77,0.00,,,0.44,Wunderground v.1.15,2013-07-23 23:20:00,
2013-07-23 19:26:00,78.6,71.5,29.74,NW,314,5.0,11.0,79,0.00,,,0.44,Wunderground v.1.15,2013-07-23 23:26:00,
2013-07-23 19:31:00,78.1,71.4,29.75,WSW,254,4.0,9.0,80,0.00,,,0.44,Wunderground v.1.15,2013-07-23 23:31:00,
2013-07-23 19:36:00,77.6,71.7,29.75,NNW,336,4.0,9.0,82,0.00,,,0.44,Wunderground v.1.15,2013-07-23 23:36:00,
2013-07-23 19:43:00,77.0,71.1,29.75,NW,317,3.0,9.0,82,0.00,,,0.44,Wunderground v.1.15,2013-07-23 23:43:00,
2013-07-23 19:48:00,76.5,70.9,29.75,WNW,282,2.0,9.0,83,0.00,,,0.44,Wunderground v.1.15,2013-07-23 23:48:00,
2013-07-23 19:53:00,76.0,70.1,29.75,NNW,346,2.0,9.0,82,0.00,,,0.44,Wunderground v.1.15,2013-07-23 23:53:00,
2013-07-23 19:58:00,75.4,69.9,29.76,NNE,32,2.0,9.0,83,0.00,,,0.44,Wunderground v.1.15,2013-07-23 23:58:00,
2013-07-23 20:04:00,74.6,68.7,29.76,NNW,329,3.0,9.0,82,0.00,,,0.44,Wunderground v.1.15,2013-07-24 00:04:00,
2013-07-23 20:10:00,74.1,68.6,29.76,WNW,291,2.0,2.0,83,0.00,,,0.44,Wunderground v.1.15,2013-07-24 00:10:00,
2013-07-23 20:15:00,73.6,69.2,29.77,North,351,1.0,9.0,86,0.00,,,0.44,Wunderground v.1.15,2013-07-24 00:15:00,
2013-07-23 20:21:00,73.3,69.5,29.77,North,355,2.0,9.0,88,0.00,,,0.44,Wunderground v.1.15,2013-07-24 00:21:00,
2013-07-23 20:26:00,72.9,69.1,29.77,North,355,3.0,9.0,88,0.00,,,0.44,Wunderground v.1.15,2013-07-24 00:26:00,
2013-07-23 20:31:00,72.5,69.1,29.77,North,355,3.0,9.0,89,0.00,,,0.44,Wunderground v.1.15,2013-07-24 00:31:00,
2013-07-23 20:36:00,72.1,68.7,29.77,North,355,3.0,9.0,89,0.00,,,0.44,Wunderground v.1.15,2013-07-24 00:36:00,
2013-07-23 20:44:00,71.7,68.3,29.77,NNW,342,3.0,9.0,89,0.00,,,0.44,Wunderground v.1.15,2013-07-24 00:44:00,
2013-07-23 20:50:00,71.4,68.0,29.78,North,355,4.0,9.0,89,0.00,,,0.44,Wunderground v.1.15,2013-07-24 00:50:00,
2013-07-23 20:56:00,70.9,67.5,29.78,NNE,13,4.0,9.0,89,0.00,,,0.44,Wunderground v.1.15,2013-07-24 00:56:00,
2013-07-23 21:02:00,70.5,67.1,29.79,NNW,328,4.0,9.0,89,0.00,,,0.44,Wunderground v.1.15,2013-07-24 01:02:00,
2013-07-23 21:07:00,70.1,66.7,29.78,North,5,3.0,9.0,89,0.00,,,0.44,Wunderground v.1.15,2013-07-24 01:07:00,
2013-07-23 21:13:00,69.7,66.3,29.78,North,355,3.0,6.0,89,0.00,,,0.44,Wunderground v.1.15,2013-07-24 01:13:00,
2013-07-23 21:19:00,69.4,66.0,29.78,NNW,344,3.0,3.0,89,0.00,,,0.44,Wunderground v.1.15,2013-07-24 01:19:00,
2013-07-23 21:24:00,69.1,65.7,29.79,North,5,2.0,3.0,89,0.00,,,0.44,Wunderground v.1.15,2013-07-24 01:24:00,
2013-07-23 21:30:00,68.8,65.4,29.79,NNW,338,2.0,2.0,89,0.00,,,0.44,Wunderground v.1.15,2013-07-24 01:30:00,
2013-07-23 21:35:00,68.7,65.6,29.80,North,355,2.0,6.0,90,0.00,,,0.44,Wunderground v.1.15,2013-07-24 01:35:00,
2013-07-23 21:42:00,68.5,65.4,29.81,NE,43,1.0,1.0,90,0.00,,,0.44,Wunderground v.1.15,2013-07-24 01:42:00,
2013-07-23 21:48:00,68.5,65.4,29.81,NNW,338,1.0,4.0,90,0.00,,,0.44,Wunderground v.1.15,2013-07-24 01:48:00,
2013-07-23 21:54:00,68.5,65.4,29.82,NW,309,1.0,5.0,90,0.00,,,0.44,Wunderground v.1.15,2013-07-24 01:54:00,
2013-07-23 21:59:00,68.5,65.4,29.82,NNE,24,1.0,1.0,90,0.00,,,0.44,Wunderground v.1.15,2013-07-24 01:59:00,
2013-07-23 22:05:00,68.4,65.4,29.83,North,360,2.0,19.0,90,0.00,,,0.44,Wunderground v.1.15,2013-07-24 02:05:00,
2013-07-23 22:12:00,68.4,65.0,29.83,North,355,2.0,19.0,89,0.00,,,0.44,Wunderground v.1.15,2013-07-24 02:12:00,
2013-07-23 22:17:00,68.3,64.6,29.83,North,5,2.0,19.0,88,0.00,,,0.44,Wunderground v.1.15,2013-07-24 02:17:00,
2013-07-23 22:22:00,68.2,64.2,29.83,North,355,2.0,19.0,87,0.00,,,0.44,Wunderground v.1.15,2013-07-24 02:22:00,
2013-07-23 22:29:00,68.1,64.1,29.83,NNE,25,2.0,19.0,87,0.00,,,0.44,Wunderground v.1.15,2013-07-24 02:29:00,
2013-07-23 22:35:00,68.0,64.0,29.84,North,9,2.0,19.0,87,0.00,,,0.44,Wunderground v.1.15,2013-07-24 02:35:00,
2013-07-23 22:41:00,67.9,63.9,29.84,NNE,27,2.0,19.0,87,0.00,,,0.44,Wunderground v.1.15,2013-07-24 02:41:00,
2013-07-23 22:47:00,67.7,63.4,29.84,NNW,342,2.0,19.0,86,0.00,,,0.44,Wunderground v.1.15,2013-07-24 02:47:00,
2013-07-23 22:54:00,67.6,63.3,29.85,NNE,22,2.0,19.0,86,0.00,,,0.44,Wunderground v.1.15,2013-07-24 02:54:00,
2013-07-23 23:00:00,67.5,62.8,29.85,NE,36,2.0,19.0,85,0.00,,,0.44,Wunderground v.1.15,2013-07-24 03:00:00,
2013-07-23 23:06:00,67.3,62.6,29.85,NNE,25,2.0,19.0,85,0.00,,,0.44,Wunderground v.1.15,2013-07-24 03:06:00,
2013-07-23 23:11:00,67.1,62.4,29.85,North,360,2.0,19.0,85,0.00,,,0.44,Wunderground v.1.15,2013-07-24 03:11:00,
2013-07-23 23:16:00,66.9,62.2,29.86,WNW,301,2.0,19.0,85,0.00,,,0.44,Wunderground v.1.15,2013-07-24 03:16:00,
2013-07-23 23:22:00,66.7,62.4,29.86,NE,49,2.0,19.0,86,0.00,,,0.44,Wunderground v.1.15,2013-07-24 03:22:00,
2013-07-23 23:28:00,66.5,62.2,29.86,North,5,1.0,19.0,86,0.00,,,0.44,Wunderground v.1.15,2013-07-24 03:28:00,
2013-07-23 23:34:00,66.4,62.1,29.86,North,355,2.0,19.0,86,0.00,,,0.44,Wunderground v.1.15,2013-07-24 03:34:00,
2013-07-23 23:41:00,66.3,62.0,29.86,North,5,2.0,19.0,86,0.00,,,0.44,Wunderground v.1.15,2013-07-24 03:41:00,
2013-07-23 23:47:00,66.2,61.6,29.87,NNW,348,2.0,19.0,85,0.00,,,0.44,Wunderground v.1.15,2013-07-24 03:47:00,
2013-07-23 23:54:00,66.1,61.1,29.88,NE,47,2.0,19.0,84,0.00,,,0.44,Wunderground v.1.15,2013-07-24 03:54:00,